CZ-6A DEB

Satellite information

Favourite Embed

Satellite Type and Status

DEBRISIN ORBIT

Key statistics

Satellite CZ-6A DEB at a glance.

Uptime

969

Days in orbit

Revolutions

≈ 14.2

Per day

Orbit

SSO

Sun Synchronous Orbit

Inclination

98.8

Latest

Satellite identification and parameters

Extended collection of information and parameters for CZ-6A DEB.

Object identification

Identified? True

Debris? True

Object name: CZ-6A DEB

International designator: 2022-151AHZ

Object number (NORAD): 58431

Object ID (CCSDS): 58431

Country: PEOPLES REPUBLIC OF CHINA (PRC)

Current information (Y/N): Y

RCS size: SMALL

Orbital parameters

Period: 101.441 minutes

Inclination: 98.8343 deg

SMA: 7205.018 km

Apoapsis: 863.134 km

Periapsis: 790.632 km

RAAN: 184.1848 deg

Eccentricy: 0.0050314

Argument of periapsis: 260.9665 deg

Mean anomaly: 98.5814 deg

Mean motion: 14.19548283 rev/day

Mean motion (dot): 0.0000331 rev/day2

B* drag term: 0.0015707 1/REarth

Two-line elements (TLE)

Creation date: June 27, 2025, 5:57 p.m.

Reference frame: TEME

Reference center: EARTH

Epoch: June 27, 2025, 6 a.m. UTC

TLE line 0: 0 CZ-6A DEB

TLE line 1: 1 58431U 22151AHZ 25178.25036255 .00003310 00000-0 15707-2 0 9992

TLE line 2: 2 58431 98.8343 184.1848 0050314 260.9665 98.5814 14.19548283116344

Live tracking on map

Real-time ground track for satellite CZ-6A DEB.

In-orbit conjunctions

A list of the most updated potential collisions computed for object CZ-6A DEB.

Target Orbit TCA Probability of collision Miss distance Type
DMSP 5D-2 F9 (USA 29) SSO 2025-05-07 03:30:43 0.0001003066 302.0 (m) PAYLOAD
CZ-6A DEB LEO 2025-02-23 02:44:42 0.0001231641 869.0 (m) DEBRIS
CZ-4C DEB SSO 2024-11-08 14:24:10 0.0004400439 216.0 (m) DEBRIS

Associated space launch

Chinese satellite reported for atmospheric/ocean/environmental/spatial parameter research purposes, details TBD.

CZ-6A DEB was lifted into orbit during the mission ‘Long March 6A | Yunhai 3’, on board a Long March 6A space rocket.

The launch took place on Nov. 11, 2022, 10:52 p.m. from Launch Complex 9A.

For more information about the launch, click the button.

Launch to space Long March 6A | Yunhai 3
Long March 6A | Yunhai 3

Agency: N/A

Status: Launch Successful

Launch date: Nov. 11, 2022, 10:52 p.m. UTC

Rocket: Long March 6A

Launch pad: Launch Complex 9A

Location: Taiyuan Satellite Launch Center, People's Republic of China

...

Latest news about this satellite

There are no fresh news available about this satellite. Check back as we update our databases every day.


Newsletter sign-up

Weekly statistics, charts and insights to help you stay on top of the space industry.